Flag for South Korea Weather past 2 weeks in Incheon, South Korea

Now
37 °F

Passing clouds.


Feels Like: 34 °F
Forecast: 35 / 53 °F
Wind: 5 mph from Southeast

Location: Incheon International Airport

Current Time: Mar 27, 2015 at 4:55:49 AM

Latest Report: Mar 27, 2015 at 4:30 AM


Visibility: 4 mi

Pressure: 30.39 "Hg

Humidity: 87%

Dew point: 34 °F

Location of IncheonLocation

Historic Weather in Incheon — Graph

°F

Incheon temperature yesterday

Maximum temperature yesterday: 52 °F (at 1:00 PM)
Minimum temperature yesterday: 34 °F (at 2:30 AM)
Average temperature yesterday: 42 °F

Past Weeks' High & Low Weather Summary

 TemperatureHumidityPressure
High63 °F (Mar 20, 1:00 PM)93% (Mar 13, 6:00 AM)30.60 "Hg (Mar 13, 6:00 AM)
Low28 °F (Mar 14, 4:00 AM)13% (Mar 24, 1:30 PM)29.77 "Hg (Mar 18, 4:30 PM)
Average43 °F56%30.19 "Hg
* Reported Mar 12 4:00 AM — Mar 27 4:00 AM, Incheon, Weather by CustomWeather, © 2015

Note: Actual official high and low records may vary slightly from our data, if they occured in-between our weather recording intervals... More about our weather records

Advertising

Incheon weather history for previous 24 hours

 ConditionsComfort  
Time TempWeatherWind HumidityBarometerVisibility
4:00 AM
Fri, Mar 27
36 °FPassing clouds.5 mph93%30.42 "Hg4 mi
3:30 AM37 °FPassing clouds.3 mph87%30.42 "Hg4 mi
3:00 AM37 °FPassing clouds.3 mph87%30.42 "Hg4 mi
2:30 AM39 °FPassing clouds.1 mph87%30.42 "Hg4 mi
2:00 AM41 °FPassing clouds.1 mph81%30.45 "Hg5 mi
1:30 AM41 °FPassing clouds.3 mph87%30.48 "HgN/A
1:00 AM41 °FPassing clouds.6 mph87%30.48 "HgN/A
12:30 AM41 °FPassing clouds.6 mph87%30.48 "HgN/A
12:00 AM41 °FPassing clouds.6 mph81%30.48 "HgN/A
11:30 PM
Thu, Mar 26
41 °FPassing clouds.6 mph81%30.48 "HgN/A
11:00 PM41 °FPassing clouds.6 mph81%30.48 "HgN/A
10:30 PM43 °FClear.7 mph76%30.48 "Hg10 mi
10:00 PM43 °FClear.7 mph76%30.48 "Hg10 mi
9:30 PM43 °FPassing clouds.8 mph76%30.48 "HgN/A
9:00 PM43 °FPassing clouds.9 mph81%30.48 "HgN/A
8:30 PM43 °FClear.10 mph81%30.48 "Hg10 mi
8:00 PM43 °FClear.9 mph81%30.48 "Hg10 mi
7:30 PM43 °FSunny.12 mph76%30.48 "Hg10 mi
7:00 PM43 °FSunny.10 mph71%30.45 "Hg10 mi
6:30 PM45 °FSunny.9 mph66%30.45 "Hg10 mi
6:00 PM46 °FSunny.10 mph62%30.45 "Hg10 mi
5:30 PM46 °FPassing clouds.10 mph57%30.45 "HgN/A
5:00 PM48 °FPassing clouds.9 mph54%30.48 "HgN/A
4:30 PM48 °FPassing clouds.10 mph54%30.48 "HgN/A
4:00 PM48 °FSunny.13 mph54%30.48 "Hg10 mi
3:30 PM50 °FPassing clouds.10 mph50%30.51 "HgN/A
3:00 PM50 °FSunny.12 mph47%30.51 "Hg10 mi
2:30 PM52 °FPassing clouds.9 mph47%30.51 "HgN/A
2:00 PM50 °FPassing clouds.9 mph47%30.54 "HgN/A
1:30 PM50 °FPassing clouds.9 mph43%30.54 "HgN/A
1:00 PM52 °FPassing clouds.8 mph41%30.54 "HgN/A
12:30 PM50 °FPassing clouds.8 mph43%30.54 "HgN/A
12:00 PM50 °FPassing clouds.7 mph40%30.54 "HgN/A
11:30 AM48 °FPassing clouds.7 mph34%30.57 "HgN/A
11:00 AM48 °FPassing clouds.6 mph40%30.57 "HgN/A
10:30 AM46 °FSunny.3 mph62%30.57 "Hg10 mi
10:00 AM46 °FPassing clouds.5 mph62%30.57 "HgN/A
9:30 AM45 °FSunny.5 mph61%30.57 "Hg10 mi
9:00 AM43 °FPassing clouds.6 mph71%30.57 "HgN/A
8:30 AM43 °FPassing clouds.3 mph76%30.57 "HgN/A
8:00 AM41 °FSunny.1 mph81%30.57 "Hg10 mi
7:30 AM36 °FSunny.3 mph93%30.57 "Hg10 mi
7:00 AM34 °FPassing clouds.1 mph93%30.57 "Hg5 mi
6:30 AM34 °FLight fog.3 mph87%30.57 "Hg5 mi
6:00 AM36 °FLight fog.2 mph93%30.57 "Hg5 mi
5:30 AM34 °FLight fog.2 mph87%30.57 "Hg5 mi
5:00 AM34 °FPassing clouds.3 mph87%30.57 "Hg5 mi
4:30 AM34 °FClear.2 mph87%30.57 "Hg10 mi
4:00 AM34 °FClear.2 mph87%30.57 "Hg10 mi
Weather by CustomWeather, © 2015

See weather overviewHow to use our weather pages